Tracking 29892 objects as of 21-Nov-2024
HD Live streaming from Space Station
objects crossing your sky now

TRANSIT 2A

Track TRANSIT 2A now!
10-day predictions
TRANSIT 2A is classified as:


NORAD ID: 45
Int'l Code: 1960-007A
Perigee: 598.7 km
Apogee: 964.7 km
Inclination: 66.7 °
Period: 100.3 minutes
Semi major axis: 7152 km
RCS: 0.4368 m2 (medium)
Launch date: June 22, 1960
Source: United States (US)
Launch site: AIR FORCE EASTERN TEST RANGE (AFETR)
Your satellite tracking list
Your tracking list is empty




NASA's NSSDC Master Catalog

Two Line Element Set (TLE):
1    45U 60007A   24325.95153229  .00001523  00000-0  39303-3 0  9996
2    45  66.6941  75.6043 0255856 218.8418 139.4054 14.35146548354639
Source of the keplerian elements: AFSPC